| time (UTC) | temp C | wind direction | speed KPH | gust KPH | rain 1hr cm | rain 24hr cm | rain mn cm | humidity % | barometer mb |
| 20260504004703 | 13 | 210 | 0.0 | 0.0 | 0.18 | 0.10 | 0.79 | 49 | 1012.6 |
| 20260504004204 | 13 | 210 | 0.0 | 0.0 | 0.18 | 0.10 | 0.79 | 49 | 1012.6 |
| 20260504003701 | 14 | 210 | 0.0 | 0.0 | 0.18 | 0.10 | 0.79 | 49 | 1012.5 |
| 20260504003154 | 14 | 210 | 0.0 | 0.0 | 0.18 | 0.10 | 0.79 | 48 | 1012.4 |
| 20260504003146 | 14 | 271 | 0.0 | 0.0 | 0.18 | 0.10 | 0.79 | 47 | 1012.4 |
| 20260504002659 | 14 | 210 | 0.0 | 0.0 | 0.18 | 0.10 | 0.79 | 48 | 1012.4 |
| 20260504002155 | 14 | 271 | 0.0 | 0.0 | 0.18 | 0.10 | 0.79 | 47 | 1012.4 |
| 20260504001656 | 14 | 271 | 0.0 | 0.0 | 0.18 | 0.10 | 0.79 | 47 | 1012.3 |
| 20260504001156 | 14 | 271 | 0.0 | 0.0 | 0.18 | 0.10 | 0.79 | 46 | 1012.2 |
| 20260504000652 | 15 | 271 | 0.0 | 0.0 | 0.18 | 0.10 | 0.79 | 46 | 1012.2 |
| 20260504000153 | 15 | 242 | 0.0 | 0.0 | 0.18 | 0.10 | 0.79 | 45 | 1012.1 |
| 20260503235821 | 15 | 228 | 0.0 | 0.0 | 0.18 | 0.10 | 0.76 | 44 | 1012.1 |
| 20260503235818 | 15 | 228 | 0.0 | 0.0 | 0.18 | 0.10 | 0.76 | 44 | 1011.9 |
| 20260503235654 | 15 | 228 | 0.0 | 0.0 | 0.18 | 0.10 | 0.76 | 44 | 1012.1 |
| 20260503235228 | 15 | 228 | 0.0 | 0.0 | 0.18 | 0.10 | 0.76 | 44 | 1011.9 |
| 20260503235151 | 15 | 228 | 0.0 | 0.0 | 0.18 | 0.10 | 0.76 | 44 | 1011.9 |
| 20260503234652 | 15 | 228 | 0.0 | 0.0 | 0.08 | 0.10 | 0.76 | 43 | 1012.0 |
| 20260503234453 | 15 | 228 | 0.0 | 0.0 | 0.08 | 0.10 | 0.69 | 41 | 1011.9 |
| 20260503234153 | 15 | 228 | 0.0 | 0.0 | 0.08 | 0.10 | 0.76 | 43 | 1011.9 |
| 20260503233650 | 15 | 228 | 0.0 | 0.0 | 0.08 | 0.10 | 0.76 | 42 | 1011.9 |
| 20260503233151 | 15 | 228 | 0.0 | 0.0 | 0.08 | 0.10 | 0.76 | 42 | 1011.8 |
| 20260503232652 | 15 | 228 | 0.0 | 0.0 | 0.08 | 0.10 | 0.76 | 41 | 1011.8 |
| 20260503232148 | 15 | 228 | 0.0 | 0.0 | 0.08 | 0.10 | 0.74 | 41 | 1011.8 |
| 20260503231649 | 15 | 228 | 0.0 | 0.0 | 0.08 | 0.10 | 0.69 | 41 | 1011.9 |
| 20260503231150 | 15 | 228 | 0.0 | 0.0 | 0.08 | 0.10 | 0.69 | 41 | 1011.8 |
| 20260503230647 | 16 | 194 | 0.0 | 0.0 | 0.08 | 0.10 | 0.64 | 41 | 1011.7 |
| 20260503230148 | 16 | 309 | 0.0 | 0.0 | 0.08 | 0.10 | 0.61 | 40 | 1011.7 |
| 20260503225930 | 16 | 309 | 0.0 | 0.0 | 0.08 | 0.10 | 0.61 | 40 | 1011.7 |
| 20260503225649 | 16 | 309 | 0.0 | 0.0 | 0.08 | 0.10 | 0.61 | 40 | 1011.7 |
| 20260503225145 | 16 | 298 | 0.0 | 0.0 | 0.08 | 0.10 | 0.58 | 39 | 1011.6 |
| 20260503224646 | 16 | 291 | 1.6 | 6.4 | 0.18 | 0.10 | 0.56 | 39 | 1011.7 |
| 20260503224347 | 16 | 301 | 0.0 | 0.0 | 0.18 | 0.10 | 0.56 | 39 | 1011.7 |
| 20260503224147 | 16 | 301 | 0.0 | 0.0 | 0.18 | 0.10 | 0.56 | 39 | 1011.7 |
| 20260503224057 | 16 | 342 | 0.0 | 1.6 | 0.18 | 0.10 | 0.53 | 38 | 1011.5 |
| 20260503223644 | 16 | 278 | 0.0 | 1.6 | 0.18 | 0.10 | 0.56 | 38 | 1011.6 |
| 20260503223145 | 16 | 295 | 0.0 | 0.0 | 0.18 | 0.10 | 0.56 | 39 | 1011.6 |
| 20260503222646 | 16 | 295 | 1.6 | 0.0 | 0.18 | 0.10 | 0.56 | 39 | 1011.6 |
| 20260503222347 | 16 | 7 | 0.0 | 0.0 | 0.18 | 0.10 | 0.53 | 39 | 1011.5 |
| 20260503222142 | 16 | 7 | 0.0 | 0.0 | 0.18 | 0.10 | 0.53 | 39 | 1011.5 |
| 20260503221643 | 16 | 342 | 0.0 | 0.0 | 0.18 | 0.10 | 0.53 | 39 | 1011.6 |
| 20260503221607 | 16 | 342 | 0.0 | 1.6 | 0.18 | 0.10 | 0.53 | 38 | 1011.5 |
| 20260503221144 | 16 | 342 | 0.0 | 1.6 | 0.18 | 0.10 | 0.53 | 38 | 1011.5 |
| 20260503220932 | 16 | 293 | 0.0 | 0.0 | 0.18 | 0.10 | 0.53 | 38 | 1011.5 |
| 20260503220903 | 17 | 309 | 1.6 | 4.8 | 0.00 | 0.10 | 0.51 | 37 | 1011.4 |
| 20260503220854 | 17 | 343 | 1.6 | 1.6 | 0.00 | 0.10 | 0.48 | 37 | 1011.4 |
| 20260503220641 | 16 | 293 | 0.0 | 0.0 | 0.18 | 0.10 | 0.53 | 38 | 1011.5 |
| 20260503220408 | 16 | 264 | 0.0 | 0.0 | 0.18 | 0.10 | 0.53 | 37 | 1011.5 |
| 20260503220142 | 16 | 264 | 0.0 | 0.0 | 0.18 | 0.10 | 0.53 | 37 | 1011.5 |
| 20260503220106 | 16 | 288 | 0.0 | 0.0 | 0.18 | 0.10 | 0.51 | 37 | 1011.6 |
| 20260503215643 | 16 | 288 | 0.0 | 0.0 | 0.18 | 0.10 | 0.51 | 37 | 1011.6 |
| 20260503215542 | 16 | 10 | 1.6 | 1.6 | 0.18 | 0.10 | 0.51 | 37 | 1011.5 |
| 20260503215139 | 16 | 10 | 1.6 | 1.6 | 0.18 | 0.10 | 0.51 | 37 | 1011.5 |
| 20260503214640 | 17 | 309 | 1.6 | 4.8 | 0.00 | 0.10 | 0.51 | 37 | 1011.4 |
| 20260503214539 | 17 | 343 | 1.6 | 1.6 | 0.00 | 0.10 | 0.48 | 37 | 1011.4 |
| 20260503214141 | 17 | 343 | 1.6 | 1.6 | 0.00 | 0.10 | 0.48 | 37 | 1011.4 |
| 20260503213654 | 17 | 323 | 1.6 | 0.0 | 0.00 | 0.10 | 0.33 | 37 | 1011.4 |
| 20260503213638 | 17 | 37 | 3.2 | 0.0 | 0.00 | 0.10 | 0.46 | 38 | 1011.4 |
| 20260503213601 | 17 | 191 | 3.2 | 3.2 | 0.00 | 0.10 | 0.46 | 37 | 1011.3 |
| 20260503213138 | 17 | 191 | 3.2 | 3.2 | 0.00 | 0.10 | 0.46 | 37 | 1011.3 |
| 20260503212639 | 17 | 312 | 0.0 | 4.8 | 0.00 | 0.10 | 0.41 | 37 | 1011.4 |
| 20260503212136 | 17 | 314 | 1.6 | 1.6 | 0.00 | 0.10 | 0.36 | 37 | 1011.4 |
| 20260503211637 | 17 | 359 | 1.6 | 3.2 | 0.00 | 0.10 | 0.33 | 36 | 1011.3 |
| 20260503211138 | 17 | 323 | 1.6 | 0.0 | 0.00 | 0.10 | 0.33 | 37 | 1011.4 |
| 20260503210717 | 17 | 359 | 1.6 | 4.8 | 0.00 | 0.10 | 0.33 | 37 | 1011.3 |
| 20260503210634 | 17 | 359 | 1.6 | 4.8 | 0.00 | 0.10 | 0.33 | 37 | 1011.3 |
| 20260503210458 | 17 | 229 | 4.8 | 3.2 | 0.00 | 0.10 | 0.33 | 37 | 1011.3 |
| 20260503210135 | 17 | 319 | 0.0 | 0.0 | 0.00 | 0.10 | 0.33 | 37 | 1011.3 |
| 20260503205636 | 17 | 316 | 1.6 | 0.0 | 0.00 | 0.10 | 0.33 | 37 | 1011.4 |
| 20260503205133 | 17 | 308 | 0.0 | 0.0 | 0.00 | 0.10 | 0.33 | 37 | 1011.2 |
| 20260503204634 | 17 | 353 | 1.6 | 3.2 | 0.00 | 0.10 | 0.33 | 37 | 1011.3 |
| 20260503204133 | 17 | 229 | 4.8 | 3.2 | 0.00 | 0.10 | 0.33 | 37 | 1011.3 |
| 20260503203631 | 17 | 262 | 1.6 | 0.0 | 0.00 | 0.10 | 0.33 | 38 | 1011.2 |
| 20260503203149 | 18 | 298 | 4.8 | 0.0 | 0.00 | 0.10 | 0.33 | 38 | 1011.2 |
| 20260503203131 | 17 | 349 | 4.8 | 0.0 | 0.00 | 0.10 | 0.33 | 37 | 1011.2 |
| 20260503202632 | 17 | 263 | 1.6 | 0.0 | 0.00 | 0.10 | 0.33 | 37 | 1011.2 |
| 20260503202442 | 18 | 328 | 1.6 | 1.6 | 0.00 | 0.10 | 0.33 | 38 | 1011.2 |
| 20260503202128 | 18 | 328 | 1.6 | 1.6 | 0.00 | 0.10 | 0.33 | 38 | 1011.2 |
| 20260503201629 | 18 | 263 | 1.6 | 3.2 | 0.00 | 0.10 | 0.33 | 38 | 1011.2 |
| 20260503201130 | 18 | 298 | 4.8 | 0.0 | 0.00 | 0.10 | 0.33 | 38 | 1011.2 |
| 20260503200917 | 18 | 318 | 1.6 | 3.2 | 0.00 | 0.10 | 0.33 | 38 | 1011.2 |
| 20260503200627 | 18 | 318 | 1.6 | 3.2 | 0.00 | 0.10 | 0.33 | 38 | 1011.2 |
| 20260503200206 | 18 | 316 | 3.2 | 0.0 | 0.00 | 0.10 | 0.33 | 38 | 1011.3 |
| 20260503200128 | 18 | 316 | 3.2 | 0.0 | 0.00 | 0.10 | 0.33 | 38 | 1011.3 |
| 20260503200058 | 18 | 236 | 0.0 | 0.0 | 0.18 | 0.10 | 0.33 | 39 | 1011.4 |
| 20260503200053 | 18 | 343 | 3.2 | 0.0 | 0.18 | 0.10 | 0.33 | 39 | 1011.6 |
| 20260503195730 | 18 | 172 | 3.2 | 1.6 | 0.00 | 0.10 | 0.33 | 38 | 1011.4 |
| 20260503195628 | 18 | 311 | 0.0 | 4.8 | 0.00 | 0.10 | 0.33 | 39 | 1011.4 |
| 20260503195125 | 18 | 172 | 3.2 | 1.6 | 0.00 | 0.10 | 0.33 | 38 | 1011.4 |
| 20260503194626 | 18 | 4 | 1.6 | 0.0 | 0.18 | 0.10 | 0.33 | 39 | 1011.4 |
| 20260503194127 | 18 | 236 | 0.0 | 0.0 | 0.18 | 0.10 | 0.33 | 39 | 1011.4 |
| 20260503193623 | 18 | 343 | 3.2 | 0.0 | 0.18 | 0.10 | 0.33 | 39 | 1011.6 |
| 20260503193201 | 18 | 304 | 0.0 | 0.0 | 0.18 | 0.10 | 0.33 | 39 | 1011.5 |
| 20260503193124 | 18 | 304 | 0.0 | 0.0 | 0.18 | 0.10 | 0.33 | 39 | 1011.5 |
| 20260503192858 | 18 | 342 | 3.2 | 0.0 | 0.18 | 0.10 | 0.33 | 40 | 1011.7 |
| 20260503192852 | 18 | 274 | 0.0 | 0.0 | 0.18 | 0.10 | 0.33 | 41 | 1011.7 |
| 20260503192847 | 17 | 333 | 1.6 | 0.0 | 0.18 | 0.10 | 0.33 | 40 | 1011.6 |
| 20260503192625 | 18 | 266 | 3.2 | 3.2 | 0.18 | 0.10 | 0.33 | 39 | 1011.7 |
| 20260503192122 | 18 | 322 | 0.0 | 0.0 | 0.18 | 0.10 | 0.33 | 40 | 1011.6 |
| 20260503191621 | 18 | 329 | 0.0 | 3.2 | 0.18 | 0.10 | 0.33 | 40 | 1011.7 |
| 20260503191122 | 18 | 342 | 3.2 | 0.0 | 0.18 | 0.10 | 0.33 | 40 | 1011.7 |
| 20260503190618 | 18 | 274 | 0.0 | 0.0 | 0.18 | 0.10 | 0.33 | 41 | 1011.7 |
| 20260503190119 | 17 | 333 | 1.6 | 0.0 | 0.18 | 0.10 | 0.33 | 40 | 1011.6 |
| 20260503185700 | 17 | 291 | 1.6 | 4.8 | 0.18 | 0.10 | 0.33 | 41 | 1011.8 |
| 20260503185646 | 17 | 294 | 3.2 | 3.2 | 0.05 | 0.10 | 0.30 | 41 | 1011.8 |
| 20260503185620 | 17 | 291 | 1.6 | 4.8 | 0.18 | 0.10 | 0.33 | 41 | 1011.8 |
| 20260503185117 | 17 | 312 | 3.2 | 0.0 | 0.18 | 0.10 | 0.33 | 42 | 1011.9 |
| 20260503184618 | 17 | 294 | 3.2 | 3.2 | 0.05 | 0.10 | 0.30 | 41 | 1011.8 |
| 20260503184118 | 17 | 349 | 1.6 | 4.8 | 0.05 | 0.10 | 0.28 | 42 | 1011.9 |
| 20260503184049 | 17 | 294 | 1.6 | 4.8 | 0.05 | 0.10 | 0.28 | 42 | 1012.0 |
| 20260503184043 | 17 | 297 | 1.6 | 0.0 | 0.05 | 0.10 | 0.28 | 42 | 1011.9 |
| 20260503183615 | 17 | 294 | 1.6 | 4.8 | 0.05 | 0.10 | 0.28 | 42 | 1012.0 |
| 20260503183116 | 17 | 297 | 1.6 | 0.0 | 0.05 | 0.10 | 0.28 | 42 | 1011.9 |
| 20260503183052 | 17 | 274 | 1.6 | 0.0 | 0.05 | 0.10 | 0.28 | 42 | 1012.0 |
| 20260503183042 | 16 | 311 | 1.6 | 0.0 | 0.05 | 0.10 | 0.25 | 43 | 1012.1 |
| 20260503182617 | 17 | 274 | 1.6 | 0.0 | 0.05 | 0.10 | 0.28 | 42 | 1012.0 |
| 20260503182114 | 16 | 311 | 1.6 | 0.0 | 0.05 | 0.10 | 0.25 | 43 | 1012.1 |
| 20260503182048 | 16 | 323 | 1.6 | 4.8 | 0.05 | 0.10 | 0.23 | 42 | 1012.1 |
| 20260503181615 | 16 | 323 | 1.6 | 4.8 | 0.05 | 0.10 | 0.23 | 42 | 1012.1 |
| 20260503181116 | 16 | 309 | 3.2 | 0.0 | 0.05 | 0.10 | 0.23 | 42 | 1012.0 |
| 20260503181041 | 16 | 321 | 1.6 | 0.0 | 0.05 | 0.10 | 0.20 | 42 | 1012.0 |
| 20260503180612 | 16 | 7 | 3.2 | 1.6 | 0.05 | 0.10 | 0.20 | 42 | 1012.1 |
| 20260503180113 | 16 | 321 | 1.6 | 0.0 | 0.05 | 0.10 | 0.20 | 42 | 1012.0 |
| 20260503175614 | 16 | 359 | 0.0 | 3.2 | 0.05 | 0.10 | 0.18 | 42 | 1012.0 |
| 20260503175111 | 16 | 322 | 3.2 | 0.0 | 0.05 | 0.10 | 0.15 | 41 | 1012.1 |
| 20260503174612 | 17 | 328 | 0.0 | 0.0 | 0.00 | 0.10 | 0.15 | 41 | 1012.1 |
| 20260503174113 | 17 | 124 | 1.6 | 3.2 | 0.00 | 0.10 | 0.13 | 41 | 1012.2 |
| 20260503173610 | 17 | 283 | 1.6 | 0.0 | 0.00 | 0.10 | 0.13 | 42 | 1012.1 |
| 20260503173111 | 17 | 340 | 1.6 | 9.7 | 0.00 | 0.10 | 0.10 | 44 | 1012.1 |
| 20260503172611 | 16 | 333 | 1.6 | 0.0 | 0.00 | 0.10 | 0.10 | 44 | 1012.0 |
| 20260503172108 | 16 | 295 | 0.0 | 0.0 | 0.00 | 0.10 | 0.10 | 45 | 1012.0 |
| 20260503171609 | 16 | 354 | 4.8 | 0.0 | 0.00 | 0.10 | 0.10 | 44 | 1012.1 |
| 20260503171236 | 16 | 315 | 6.4 | 0.0 | 0.00 | 0.10 | 0.10 | 43 | 1012.1 |
| 20260503171110 | 16 | 315 | 6.4 | 0.0 | 0.00 | 0.10 | 0.10 | 43 | 1012.1 |
| 20260503170606 | 16 | 359 | 1.6 | 8.0 | 0.00 | 0.10 | 0.10 | 44 | 1012.0 |
| 20260503170107 | 16 | 322 | 1.6 | 0.0 | 0.00 | 0.10 | 0.10 | 44 | 1011.9 |
| 20260503150643 | 13 | 335 | 0.0 | 3.2 | 0.03 | 0.10 | 0.10 | 51 | 1012.5 |
| 20260503150556 | 13 | 335 | 0.0 | 3.2 | 0.03 | 0.10 | 0.10 | 51 | 1012.5 |
| 20260503131053 | 11 | 1 | 1.6 | 1.6 | 0.00 | 0.10 | 0.08 | 60 | 1012.2 |
| 20260503130550 | 11 | 287 | 0.0 | 0.0 | 0.00 | 0.10 | 0.08 | 61 | 1012.2 |
| 20260503110546 | 9 | 343 | 0.0 | 0.0 | 0.00 | 0.10 | 0.05 | 63 | 1011.3 |
| 20260503110147 | 9 | 329 | 0.0 | 3.2 | 0.00 | 0.10 | 0.05 | 64 | 1011.2 |
| 20260503081533 | 10 | 328 | 0.0 | 1.6 | 0.00 | 0.10 | 0.00 | 62 | 1009.4 |
| 20260503081034 | 10 | 314 | 0.0 | 0.0 | 0.00 | 0.10 | 0.00 | 62 | 1009.4 |
| 20260503080844 | 10 | 332 | 0.0 | 0.0 | 0.00 | 0.10 | 0.00 | 62 | 1009.4 |
| 20260503080532 | 10 | 332 | 0.0 | 0.0 | 0.00 | 0.10 | 0.00 | 62 | 1009.4 |
| 20260503072940 | 11 | 332 | 0.0 | 0.0 | 0.00 | 0.10 | 0.00 | 60 | 1009.4 |
| 20260503072532 | 11 | 332 | 0.0 | 0.0 | 0.00 | 0.10 | 0.00 | 60 | 1009.4 |
| 20260503072406 | 11 | 323 | 0.0 | 0.0 | 0.00 | 0.10 | 0.00 | 60 | 1009.5 |
| 20260503072029 | 11 | 323 | 0.0 | 0.0 | 0.00 | 0.10 | 0.00 | 60 | 1009.5 |
| 20260503071908 | 11 | 323 | 0.0 | 0.0 | 0.00 | 0.10 | 0.00 | 60 | 1009.6 |
| 20260503071530 | 11 | 323 | 0.0 | 0.0 | 0.00 | 0.10 | 0.00 | 60 | 1009.6 |
| 20260503071450 | 11 | 323 | 0.0 | 0.0 | 0.00 | 0.10 | 0.00 | 59 | 1009.6 |
| 20260503071233 | 11 | 323 | 0.0 | 0.0 | 0.00 | 0.10 | 0.00 | 59 | 1009.6 |
| 20260503071031 | 11 | 323 | 0.0 | 0.0 | 0.00 | 0.10 | 0.00 | 59 | 1009.6 |
| 20260503070845 | 11 | 323 | 0.0 | 0.0 | 0.00 | 0.10 | 0.00 | 59 | 1009.6 |
| 20260503070527 | 11 | 323 | 0.0 | 0.0 | 0.00 | 0.10 | 0.00 | 59 | 1009.6 |
| 20260503055121 | 11 | 343 | 0.0 | 0.0 | 0.00 | 0.10 | 0.00 | 59 | 1009.6 |
| 20260503055023 | 11 | 343 | 0.0 | 0.0 | 0.00 | 0.10 | 0.00 | 59 | 1009.6 |
| 20260503054524 | 11 | 322 | 0.0 | 0.0 | 0.00 | 0.10 | 0.00 | 59 | 1009.7 |
| 20260503054025 | 11 | 322 | 0.0 | 0.0 | 0.00 | 0.10 | 0.00 | 60 | 1009.8 |
| 20260503053522 | 11 | 322 | 0.0 | 0.0 | 0.00 | 0.10 | 0.00 | 60 | 1009.9 |
| 20260503053258 | 11 | 322 | 0.0 | 0.0 | 0.00 | 0.10 | 0.00 | 60 | 1009.9 |
| 20260503053023 | 11 | 322 | 0.0 | 0.0 | 0.00 | 0.10 | 0.00 | 60 | 1009.9 |
| 20260503052524 | 11 | 322 | 0.0 | 0.0 | 0.00 | 0.10 | 0.00 | 60 | 1009.8 |
| 20260503052021 | 11 | 322 | 0.0 | 0.0 | 0.00 | 0.10 | 0.00 | 60 | 1009.9 |
| 20260503051522 | 11 | 322 | 1.6 | 0.0 | 0.00 | 0.10 | 0.00 | 61 | 1009.8 |
| 20260503051023 | 11 | 333 | 0.0 | 0.0 | 0.00 | 0.10 | 0.00 | 61 | 1009.8 |
| 20260503050521 | 11 | 333 | 0.0 | 0.0 | 0.00 | 0.10 | 0.00 | 62 | 1009.9 |
| 20260503050022 | 11 | 339 | 1.6 | 0.0 | 0.00 | 0.10 | 0.00 | 62 | 1009.9 |
| 20260503045523 | 11 | 356 | 0.0 | 0.0 | 0.00 | 0.10 | 0.00 | 63 | 1010.0 |
| 20260503045051 | 11 | 356 | 0.0 | 0.0 | 0.00 | 0.10 | 0.00 | 63 | 1010.0 |
| 20260503045020 | 11 | 356 | 0.0 | 0.0 | 0.00 | 0.10 | 0.00 | 63 | 1010.0 |
| 20260503044521 | 11 | 314 | 0.0 | 0.0 | 0.00 | 0.18 | 0.10 | 63 | 1010.2 |
| 20260503044022 | 11 | 307 | 0.0 | 0.0 | 0.00 | 0.18 | 0.10 | 63 | 1010.3 |
| 20260503043519 | 11 | 283 | 1.6 | 0.0 | 0.00 | 0.18 | 0.10 | 63 | 1010.3 |
| 20260503043020 | 11 | 267 | 0.0 | 0.0 | 0.00 | 0.18 | 0.10 | 64 | 1010.4 |
| 20260503042520 | 11 | 267 | 1.6 | 0.0 | 0.00 | 0.18 | 0.10 | 64 | 1010.5 |
| 20260503042300 | 11 | 345 | 0.0 | 0.0 | 0.00 | 0.18 | 0.10 | 64 | 1010.6 |
| 20260503042017 | 11 | 345 | 0.0 | 0.0 | 0.00 | 0.18 | 0.10 | 64 | 1010.6 |
| 20260503041518 | 12 | 354 | 0.0 | 0.0 | 0.00 | 0.18 | 0.10 | 64 | 1010.5 |
| 20260503041019 | 11 | 354 | 0.0 | 0.0 | 0.00 | 0.18 | 0.10 | 65 | 1010.5 |
| 20260503040517 | 11 | 354 | 0.0 | 0.0 | 0.00 | 0.18 | 0.10 | 65 | 1010.5 |
| 20260503040018 | 12 | 354 | 0.0 | 0.0 | 0.00 | 0.18 | 0.10 | 65 | 1010.5 |
| 20260503035519 | 12 | 354 | 0.0 | 0.0 | 0.00 | 0.18 | 0.10 | 65 | 1010.3 |
| 20260503035016 | 12 | 354 | 0.0 | 0.0 | 0.00 | 0.18 | 0.10 | 66 | 1010.3 |
| 20260503034517 | 12 | 354 | 0.0 | 0.0 | 0.00 | 0.18 | 0.10 | 66 | 1010.3 |
| 20260503034018 | 12 | 353 | 1.6 | 1.6 | 0.00 | 0.18 | 0.10 | 66 | 1010.3 |
| 20260503033516 | 12 | 239 | 0.0 | 0.0 | 0.00 | 0.18 | 0.10 | 66 | 1010.4 |
| 20260503033018 | 12 | 239 | 0.0 | 0.0 | 0.00 | 0.18 | 0.10 | 67 | 1010.4 |
| 20260503032016 | 12 | 239 | 0.0 | 0.0 | 0.00 | 0.18 | 0.10 | 68 | 1010.4 |
| 20260503031517 | 12 | 239 | 0.0 | 0.0 | 0.00 | 0.18 | 0.10 | 69 | 1010.4 |
| 20260503031018 | 12 | 239 | 0.0 | 0.0 | 0.00 | 0.18 | 0.10 | 70 | 1010.5 |
| 20260503030514 | 12 | 239 | 1.6 | 0.0 | 0.00 | 0.18 | 0.10 | 71 | 1010.4 |
| 20260503030015 | 12 | 329 | 0.0 | 0.0 | 0.00 | 0.18 | 0.10 | 72 | 1010.4 |
| 20260503025517 | 12 | 302 | 0.0 | 0.0 | 0.00 | 0.18 | 0.10 | 75 | 1010.4 |
| 20260503025014 | 12 | 302 | 0.0 | 0.0 | 0.00 | 0.18 | 0.10 | 77 | 1010.4 |
| 20260503024516 | 12 | 301 | 0.0 | 1.6 | 0.00 | 0.18 | 0.10 | 79 | 1010.2 |
| 20260503024017 | 12 | 287 | 0.0 | 0.0 | 0.00 | 0.18 | 0.10 | 81 | 1010.3 |
| 20260503023521 | 12 | 267 | 0.0 | 0.0 | 0.00 | 0.18 | 0.10 | 83 | 1010.3 |
| 20260503023015 | 12 | 267 | 0.0 | 0.0 | 0.00 | 0.18 | 0.10 | 83 | 1010.3 |
| 20260503022515 | 12 | 267 | 0.0 | 0.0 | 0.00 | 0.18 | 0.10 | 83 | 1010.4 |
| 20260503022012 | 12 | 267 | 0.0 | 0.0 | 0.00 | 0.18 | 0.10 | 83 | 1010.5 |
| 20260503021513 | 12 | 267 | 0.0 | 0.0 | 0.00 | 0.18 | 0.10 | 83 | 1010.6 |
| 20260503021013 | 12 | 267 | 0.0 | 0.0 | 0.00 | 0.18 | 0.10 | 83 | 1010.7 |
| 20260503020511 | 12 | 267 | 0.0 | 0.0 | 0.00 | 0.18 | 0.10 | 82 | 1010.6 |
| 20260503020012 | 12 | 267 | 0.0 | 0.0 | 0.00 | 0.18 | 0.10 | 82 | 1010.7 |
| 20260503015513 | 12 | 267 | 0.0 | 0.0 | 0.00 | 0.18 | 0.10 | 82 | 1010.5 |
| 20260503015011 | 12 | 267 | 0.0 | 0.0 | 0.00 | 0.18 | 0.10 | 81 | 1010.6 |
| 20260503014512 | 12 | 267 | 0.0 | 0.0 | 0.00 | 0.18 | 0.10 | 81 | 1010.7 |
| 20260503014013 | 12 | 267 | 0.0 | 0.0 | 0.00 | 0.18 | 0.10 | 81 | 1010.7 |
| 20260503013510 | 12 | 267 | 0.0 | 0.0 | 0.00 | 0.18 | 0.10 | 80 | 1010.8 |
| 20260503013011 | 12 | 267 | 0.0 | 0.0 | 0.00 | 0.18 | 0.10 | 80 | 1010.8 |
| 20260503012512 | 12 | 267 | 0.0 | 0.0 | 0.00 | 0.18 | 0.10 | 79 | 1010.7 |
| 20260503012009 | 13 | 267 | 0.0 | 0.0 | 0.00 | 0.18 | 0.10 | 79 | 1010.7 |
| 20260503011056 | 13 | 267 | 0.0 | 0.0 | 0.00 | 0.18 | 0.10 | 78 | 1010.6 |
| 20260503011011 | 13 | 267 | 0.0 | 0.0 | 0.00 | 0.18 | 0.10 | 78 | 1010.6 |
| 20260503010506 | 13 | 174 | 0.0 | 0.0 | 0.00 | 0.18 | 0.10 | 78 | 1010.7 |
| 20260503010301 | 13 | 174 | 0.0 | 0.0 | 0.00 | 0.18 | 0.10 | 78 | 1010.5 |
| 20260503010007 | 13 | 174 | 0.0 | 0.0 | 0.00 | 0.18 | 0.10 | 78 | 1010.5 |
| 20260503005004 | 13 | 174 | 0.0 | 0.0 | 0.00 | 0.18 | 0.10 | 77 | 1010.3 |